Location: Carr Mill
(33.2054°N, 85.9439°W)
Time: 06:59:00
(UTC+00:00)

ISS - Pass Details

Date: 27 June 2021
Orbit: 419 x 421 km, 51.6° (Epoch: 04 August)

Event Time Altitude Azimuth Distance (km) Brightness Sun altitude
Exits shadow 09:58:58 - 270° (W) 1,797 -1.1 -7.6°
Reaches altitude 10° 09:59:56 10° 280° (W) 1,495 -1.4 -7.4°
Maximum altitude 10:02:22 19° 326° (NNW) 1,085 -1.6 -7.0°
Drops below altitude 10° 10:04:49 10° 13° (NNE) 1,499 -0.2 -6.6°
Sets 10:07:22 0° 33° (NNE) 2,365 1.5 -6.1°
